Lincolnton, NC

1:03 AM EDT on July 26, 2017 (GMT -0400)
Lincolnton-Lincoln County Regional

Weather History for KIPJ - November, 2013

Change the Weather History Date:

Saturday, November 16, 2013

  Actual Average (KCLT) Record (KCLT)
Temperature  
Mean Temperature 55 °F -  
Max Temperature 62 °F 61 °F 82 °F (1958)
Min Temperature 48 °F 39 °F 22 °F (1969)
Degree Days  
Heating Degree Days 10    
Growing Degree Days 5 (Base 50)    
Moisture  
Dew Point 50 °F    
Average Humidity 90    
Maximum Humidity 100    
Minimum Humidity 68    
Precipitation  
Precipitation 0.05 in - - ()
Sea Level Pressure  
Sea Level Pressure 30.23 in    
Wind  
Wind Speed 0 mph (North)    
Max Wind Speed 0 mph    
Max Gust Speed -    
Visibility 6 miles    
Events Rain    
Averages and records for this station are not official NWS values.
T = Trace of Precipitation, MM = Missing Value Source: NWS Daily Summary

Daily Weather History Graph

Daily Weather History Graph

Search for Another Location

Airport or City:

Trip Planner

Search our weather history database for the weather conditions in past years. The results will help you decide how hot, cold, wet, or windy it might be!

Date:

Astronomy

Nov. 16, 2013 Rise Set
Actual Time 7:01 AM EST 5:17 PM EST
Civil Twilight 6:34 AM EST 5:44 PM EST
Nautical Twilight 6:03 AM EST 6:15 PM EST
Astronomical Twilight 5:33 AM EST 6:45 PM EST
Moon 4:50 PM EST (11/16) 5:58 AM EST (11/16)
Length of Visible Light 11h 10m
Length of Day
10h 16m
Waxing Gibbous, 99% of the Moon is Illuminated
Nov 16
Waxing Gibbous
Nov 17
Full
Nov 25
Last Quarter
Dec 2
New
Dec 9
First Quarter

Hourly Weather History & Observations

Time (EST) Temp. Dew Point Humidity Pressure Visibility Wind Dir Wind Speed Gust Speed Precip Events Conditions
12:17 AM 48.2 °F 46.4 °F 93% 30.23 in 7.0 mi Calm Calm - N/A   Overcast
12:35 AM 48.2 °F 46.4 °F 93% 30.23 in 7.0 mi Calm Calm - N/A   Overcast
12:55 AM 48.2 °F 46.4 °F 93% 30.23 in 7.0 mi Calm Calm - N/A   Overcast
1:15 AM 48.2 °F 46.4 °F 93% 30.21 in 7.0 mi Calm Calm - N/A   Overcast
1:35 AM 48.2 °F 46.4 °F 93% 30.22 in 7.0 mi Calm Calm - N/A   Overcast
1:55 AM 48.2 °F 46.4 °F 93% 30.22 in 7.0 mi Calm Calm - N/A   Overcast
2:15 AM 48.2 °F 46.4 °F 93% 30.23 in 5.0 mi Calm Calm - N/A   Overcast
2:35 AM 48.2 °F 46.4 °F 93% 30.24 in 3.0 mi Calm Calm - 0.01 in Rain Light Rain
2:55 AM 48.2 °F 46.4 °F 93% 30.24 in 2.5 mi Calm Calm - 0.01 in   Heavy Drizzle
3:18 AM 48.2 °F 46.4 °F 93% 30.23 in 2.0 mi Calm Calm - 0.03 in Rain Light Rain
3:35 AM 48.2 °F 46.4 °F 93% 30.22 in 2.0 mi Calm Calm - 0.03 in   Overcast
3:55 AM 48.2 °F 46.4 °F 93% 30.22 in 2.5 mi Calm Calm - 0.03 in   Overcast
4:15 AM 48.2 °F 46.4 °F 93% 30.22 in 2.0 mi Calm Calm - N/A   Overcast
4:35 AM 48.2 °F 46.4 °F 93% 30.22 in 2.0 mi Calm Calm - N/A   Overcast
4:55 AM 48.2 °F 48.2 °F 100% 30.21 in 2.0 mi Calm Calm - N/A   Overcast
5:15 AM 48.2 °F 48.2 °F 100% 30.22 in 2.5 mi Calm Calm - 0.01 in   Overcast
5:36 AM 48.2 °F 48.2 °F 100% 30.22 in 3.0 mi Calm Calm - 0.01 in   Overcast
5:55 AM 48.2 °F 48.2 °F 100% 30.23 in 3.0 mi Calm Calm - 0.01 in   Overcast
6:15 AM 48.2 °F 48.2 °F 100% 30.23 in 2.0 mi Calm Calm - N/A   Overcast
6:35 AM 48.2 °F 48.2 °F 100% 30.22 in 1.5 mi Calm Calm - N/A   Overcast
6:55 AM 48.2 °F 48.2 °F 100% 30.22 in 2.5 mi Calm Calm - N/A   Overcast
7:15 AM 50.0 °F 48.2 °F 94% 30.23 in 1.5 mi Calm Calm - N/A   Overcast
7:35 AM 50.0 °F 48.2 °F 94% 30.24 in 1.8 mi Calm Calm - N/A   Overcast
8:15 AM 50.0 °F 48.2 °F 94% 30.26 in 3.0 mi Calm Calm - N/A   Overcast
8:35 AM 51.8 °F 48.2 °F 88% 30.27 in 2.0 mi Calm Calm - N/A   Overcast
8:55 AM 51.8 °F 50.0 °F 94% 30.28 in 2.5 mi Calm Calm - N/A   Overcast
9:16 AM 51.8 °F 50.0 °F 94% 30.28 in 1.8 mi Calm Calm - N/A   Overcast
9:35 AM 51.8 °F 50.0 °F 94% 30.27 in 1.5 mi Calm Calm - N/A   Overcast
9:55 AM 51.8 °F 51.8 °F 100% 30.28 in 1.8 mi Calm Calm - N/A   Overcast
10:16 AM 51.8 °F 51.8 °F 100% 30.28 in 1.8 mi Calm Calm - N/A   Overcast
10:35 AM 53.6 °F 51.8 °F 94% 30.28 in 2.0 mi Calm Calm - N/A   Overcast
10:55 AM 53.6 °F 51.8 °F 94% 30.28 in 2.0 mi Calm Calm - N/A   Overcast
11:15 AM 53.6 °F 51.8 °F 94% 30.29 in 2.0 mi Calm Calm - N/A   Overcast
12:15 PM 55.4 °F 53.6 °F 94% 30.27 in 5.0 mi Calm Calm - N/A   Overcast
12:35 PM 57.2 °F 53.6 °F 88% 30.25 in 7.0 mi Calm Calm - N/A   Overcast
12:55 PM 57.2 °F 53.6 °F 88% 30.24 in 10.0 mi Calm Calm - N/A   Overcast
1:15 PM 57.2 °F 51.8 °F 82% 30.24 in 10.0 mi Calm Calm - N/A   Overcast
1:35 PM 59.0 °F 51.8 °F 77% 30.23 in 10.0 mi Calm Calm - N/A   Overcast
1:55 PM 59.0 °F 51.8 °F 77% 30.23 in 10.0 mi Calm Calm - N/A   Overcast
2:15 PM 59.0 °F 51.8 °F 77% 30.22 in 10.0 mi Calm Calm - N/A   Mostly Cloudy
2:35 PM 60.8 °F 51.8 °F 72% 30.21 in 10.0 mi Calm Calm - N/A   Mostly Cloudy
3:15 PM 62.6 °F 51.8 °F 68% 30.21 in 10.0 mi Calm Calm - N/A   Overcast
3:35 PM 62.6 °F 51.8 °F 68% 30.21 in 10.0 mi Calm Calm - N/A   Overcast
3:55 PM 62.6 °F 51.8 °F 68% 30.22 in 10.0 mi Calm Calm - N/A   Mostly Cloudy
4:15 PM 60.8 °F 51.8 °F 72% 30.22 in 10.0 mi Calm Calm - N/A   Mostly Cloudy
4:35 PM 60.8 °F 51.8 °F 72% 30.22 in 10.0 mi Calm Calm - N/A   Overcast
4:55 PM 60.8 °F 51.8 °F 72% 30.21 in 10.0 mi Calm Calm - N/A   Overcast
5:15 PM 59.0 °F 51.8 °F 77% 30.22 in 10.0 mi Calm Calm - N/A   Overcast
5:35 PM 57.2 °F 53.6 °F 88% 30.21 in 10.0 mi Calm Calm - N/A   Overcast
5:55 PM 57.2 °F 53.6 °F 88% 30.22 in 10.0 mi Calm Calm - N/A   Overcast
6:15 PM 57.2 °F 53.6 °F 88% 30.22 in 10.0 mi Calm Calm - N/A   Overcast
6:35 PM 57.2 °F 53.6 °F 88% 30.22 in 10.0 mi Calm Calm - N/A   Overcast
6:56 PM 57.2 °F 53.6 °F 88% 30.22 in 10.0 mi Calm Calm - N/A   Overcast
7:15 PM 57.2 °F 51.8 °F 82% 30.22 in 10.0 mi Calm Calm - N/A   Overcast
7:35 PM 55.4 °F 53.6 °F 94% 30.22 in 10.0 mi Calm Calm - N/A   Overcast
7:55 PM 57.2 °F 53.6 °F 88% 30.24 in 10.0 mi Calm Calm - N/A   Overcast
8:15 PM 57.2 °F 53.6 °F 88% 30.25 in 10.0 mi Calm Calm - N/A   Overcast
8:35 PM 57.2 °F 51.8 °F 82% 30.25 in 10.0 mi Calm Calm - N/A   Overcast
8:55 PM 55.4 °F 51.8 °F 88% 30.24 in 10.0 mi Calm Calm - N/A   Overcast
9:15 PM 55.4 °F 53.6 °F 94% 30.24 in 10.0 mi Calm Calm - N/A   Overcast
9:35 PM 55.4 °F 53.6 °F 94% 30.24 in 10.0 mi Calm Calm - N/A   Overcast
9:55 PM 55.4 °F 53.6 °F 94% 30.24 in 10.0 mi Calm Calm - N/A   Overcast
10:15 PM 55.4 °F 51.8 °F 88% 30.22 in 7.0 mi Calm Calm - N/A   Mostly Cloudy
10:35 PM 53.6 °F 51.8 °F 94% 30.22 in 7.0 mi Calm Calm - N/A   Scattered Clouds
10:55 PM 53.6 °F 51.8 °F 94% 30.22 in 5.0 mi Calm Calm - N/A   Mostly Cloudy
11:15 PM 53.6 °F 51.8 °F 94% 30.22 in 7.0 mi Calm Calm - N/A   Overcast
11:38 PM 53.6 °F 51.8 °F 94% 30.22 in 7.0 mi Calm Calm - N/A   Overcast
11:55 PM 53.6 °F 53.6 °F 100% 30.23 in 7.0 mi Calm Calm - N/A   Overcast